Location: Fort Worth, Tx
(32.7431°N, 97.3695°W)
Time: 00:23:56
(UTC-04:00)

A-11 Canister half - Pass Details

Date: 29 February 2024
Orbit: 1525 x 1683 km, 47.3° (Epoch: 24 April)

Event Time Altitude Azimuth Distance (km) Brightness Sun altitude
Rises 00:14:51 0° 290° (WNW) 4,737 12.0 -57.9°
Reaches altitude 10° 00:18:26 10° 300° (WNW) 3,734 11.3 -58.4°
Enters shadow 00:20:36 17° 310° (NW) 3,191 10.9 -58.7°
